KX4O-13 Weather Reports


time (UTC)temp
C
wind
direction
speed
KPH
gust
KPH
rain 1hr
cm
rain 24hr
cm
rain mn
cm
humidity
%
barometer
mb
20260505011554 19 236 4.8 9.7 0.00 0.00 0.00 53 1010.5
20260505011056 19 187 6.4 16.1 0.00 0.00 0.00 52 1010.3
20260505010554 20 178 4.8 16.1 0.00 0.00 0.00 51 1010.5
20260505010054 20 186 4.8 9.7 0.00 0.00 0.00 50 1010.5
20260505005554 20 207 6.4 17.7 0.00 0.00 0.00 49 1010.4
20260505005056 20 212 4.8 14.5 0.00 0.00 0.00 48 1010.3
20260505004554 20 175 3.2 8.0 0.00 0.00 0.00 48 1010.3
20260505004054 20 169 4.8 8.0 0.00 0.00 0.00 47 1010.2
20260505003554 20 238 4.8 9.7 0.00 0.00 0.00 46 1010.2
20260505003054 21 209 4.8 12.9 0.00 0.00 0.00 46 1010.2
20260505002554 21 238 4.8 12.9 0.00 0.00 0.00 45 1010.2
20260505002054 21 209 4.8 12.9 0.00 0.00 0.00 45 1010.2
20260505001554 21 211 4.8 16.1 0.00 0.00 0.00 45 1010.2
20260505001056 21 200 3.2 9.7 0.00 0.00 0.00 45 1010.1
20260505000554 21 190 3.2 8.0 0.00 0.00 0.00 44 1010.1
20260505000054 21 210 4.8 9.7 0.00 0.00 0.00 44 1010.0
20260504235554 21 206 3.2 11.3 0.00 0.00 0.00 44 1010.0
20260504235054 21 227 3.2 6.4 0.00 0.00 0.00 43 1010.0
20260504234554 21 190 3.2 12.9 0.00 0.00 0.00 43 1010.0
20260504234054 21 205 3.2 8.0 0.00 0.00 0.00 43 1010.0
20260504233554 21 224 4.8 17.7 0.00 0.00 0.00 43 1010.0
20260504233056 21 187 4.8 11.3 0.00 0.00 0.00 43 1010.0
20260504232554 21 202 4.8 14.5 0.00 0.00 0.00 43 1010.0
20260504232054 21 192 4.8 12.9 0.00 0.00 0.00 43 1009.9
20260504231554 21 181 6.4 19.3 0.00 0.00 0.00 43 1009.9
20260504231054 22 171 4.8 11.3 0.00 0.00 0.00 42 1009.9
20260504230554 21 240 6.4 19.3 0.00 0.00 0.00 42 1009.9
20260504230054 21 163 4.8 14.5 0.00 0.00 0.00 42 1009.9
20260504225554 21 209 6.4 12.9 0.00 0.00 0.00 41 1009.8
20260504225056 22 178 8.0 24.1 0.00 0.00 0.00 41 1009.8
20260504224554 22 226 9.7 19.3 0.00 0.00 0.00 41 1009.8
20260504224054 22 226 9.7 24.1 0.00 0.00 0.00 40 1009.8
20260504223554 22 213 9.7 19.3 0.00 0.00 0.00 40 1009.8
20260504223054 23 325 9.7 27.4 0.00 0.00 0.00 39 1009.8
20260504222554 23 258 9.7 24.1 0.00 0.00 0.00 39 1009.7
20260504222054 23 179 11.3 22.5 0.00 0.00 0.00 39 1009.6
20260504221554 23 200 12.9 29.0 0.00 0.00 0.00 39 1009.7
20260504221056 23 230 11.3 19.3 0.00 0.00 0.00 40 1009.6
20260504220554 23 184 12.9 22.5 0.00 0.00 0.00 39 1009.6
20260504220054 23 210 14.5 30.6 0.00 0.00 0.00 39 1009.6
20260504215554 23 212 12.9 27.4 0.00 0.00 0.00 37 1009.7
20260504215054 23 189 11.3 20.9 0.00 0.00 0.00 37 1009.6
20260504214554 23 192 9.7 27.4 0.00 0.00 0.00 37 1009.6
20260504214054 23 180 11.3 20.9 0.00 0.00 0.00 39 1009.7
20260504213554 23 207 11.3 24.1 0.00 0.00 0.00 37 1009.7
20260504213056 23 195 11.3 24.1 0.00 0.00 0.00 37 1009.7
20260504212554 23 196 14.5 27.4 0.00 0.00 0.00 36 1009.6
20260504212054 23 170 12.9 32.2 0.00 0.00 0.00 36 1009.5
20260504211554 23 203 12.9 22.5 0.00 0.00 0.00 37 1009.6
20260504211054 23 200 12.9 32.2 0.00 0.00 0.00 36 1009.5
20260504210554 23 189 11.3 24.1 0.00 0.00 0.00 37 1009.5
20260504210054 24 214 9.7 29.0 0.00 0.00 0.00 35 1009.5
20260504205554 25 197 8.0 27.4 0.00 0.00 0.00 36 1009.6
20260504205056 24 224 9.7 20.9 0.00 0.00 0.00 38 1009.5
20260504204554 23 210 12.9 25.7 0.00 0.00 0.00 35 1009.5
20260504204054 23 202 11.3 27.4 0.00 0.00 0.00 37 1009.7
20260504203554 23 175 11.3 25.7 0.00 0.00 0.00 37 1009.6
20260504203054 23 250 12.9 33.8 0.00 0.00 0.00 36 1009.8
20260504202554 23 184 12.9 24.1 0.00 0.00 0.00 37 1009.7
20260504202054 23 202 11.3 27.4 0.00 0.00 0.00 35 1009.8
20260504201554 23 197 9.7 20.9 0.00 0.00 0.00 36 1009.9
20260504201056 24 207 9.7 22.5 0.00 0.00 0.00 34 1009.9
20260504200554 24 192 11.3 25.7 0.00 0.00 0.00 34 1009.9
20260504200054 25 194 11.3 22.5 0.00 0.00 0.00 34 1009.8
20260504195554 25 184 6.4 24.1 0.00 0.00 0.00 33 1009.8
20260504195054 25 173 6.4 14.5 0.00 0.00 0.00 35 1009.9
20260504194554 24 281 12.9 22.5 0.00 0.00 0.00 35 1010.0
20260504194054 24 176 14.5 27.4 0.00 0.00 0.00 34 1010.1
20260504193554 25 214 12.9 27.4 0.00 0.00 0.00 34 1010.1
20260504193056 24 186 9.7 24.1 0.00 0.00 0.00 33 1010.2
20260504192554 24 214 8.0 12.9 0.00 0.00 0.00 33 1010.4
20260504192054 24 232 8.0 30.6 0.00 0.00 0.00 34 1010.5
20260504191554 25 189 6.4 16.1 0.00 0.00 0.00 32 1010.4
20260504191056 25 228 9.7 17.7 0.00 0.00 0.00 36 1010.6
20260504190554 24 189 12.9 22.5 0.00 0.00 0.00 35 1010.5
20260504190054 24 190 11.3 29.0 0.00 0.00 0.00 33 1010.8
20260504185554 24 173 9.7 22.5 0.00 0.00 0.00 34 1010.8
20260504185054 24 188 11.3 22.5 0.00 0.00 0.00 35 1010.9
20260504184555 23 196 11.3 20.9 0.00 0.00 0.00 33 1011.0
20260504184054 24 195 8.0 22.5 0.00 0.00 0.00 36 1011.0
20260504183554 23 229 9.7 17.7 0.00 0.00 0.00 37 1011.1
20260504183056 23 219 8.0 24.1 0.00 0.00 0.00 32 1011.2
20260504182554 23 161 6.4 22.5 0.00 0.00 0.00 35 1011.3
20260504182054 23 186 9.7 16.1 0.00 0.00 0.00 37 1011.3
20260504181556 23 271 12.9 24.1 0.00 0.00 0.00 34 1011.4
20260504181054 23 211 12.9 27.4 0.00 0.00 0.00 36 1011.5
20260504180554 23 160 11.3 29.0 0.00 0.00 0.00 35 1011.7
20260504180054 23 181 8.0 17.7 0.00 0.00 0.00 35 1011.7
20260504175554 23 188 8.0 24.1 0.00 0.00 0.00 35 1011.9
20260504175056 23 223 8.0 17.7 0.00 0.00 0.00 35 1011.9
20260504174554 23 225 8.0 20.9 0.00 0.00 0.00 36 1012.0
20260504174054 23 196 6.4 22.5 0.00 0.00 0.00 36 1011.8
20260504173554 22 264 6.4 17.7 0.00 0.00 0.00 34 1012.1
20260504173054 23 278 6.4 12.9 0.00 0.00 0.00 35 1012.2
20260504172554 23 234 6.4 20.9 0.00 0.00 0.00 36 1012.3
20260504172054 22 169 8.0 14.5 0.00 0.00 0.00 38 1012.3
20260504171554 22 202 9.7 22.5 0.00 0.00 0.00 33 1012.5
20260504171056 23 167 8.0 19.3 0.00 0.00 0.00 35 1012.4
20260504170554 22 209 8.0 20.9 0.00 0.00 0.00 35 1012.5
20260504151056 20 201 6.4 19.3 0.00 0.00 0.00 42 1014.0
20260504150554 19 242 6.4 16.1 0.00 0.00 0.00 41 1014.0
20260504141056 17 180 6.4 16.1 0.00 0.00 0.00 49 1014.4
20260504140554 17 194 6.4 14.5 0.00 0.00 0.00 50 1014.5
20260504130555 12 233 6.4 12.9 0.00 0.00 0.00 62 1014.8
20260504110555 6 347 0.0 0.0 0.00 0.00 0.00 86 1015.5
20260504100555 5 347 0.0 3.2 0.00 0.00 0.00 84 1015.2
20260504081555 6 173 0.0 3.2 0.00 0.00 0.00 81 1015.5
20260504081055 6 317 1.6 1.6 0.00 0.00 0.00 81 1015.5
20260504080555 6 317 0.0 1.6 0.00 0.00 0.00 81 1015.4
20260504050555 6 22 0.0 1.6 0.00 0.00 0.00 79 1015.8
20260504045555 6 22 0.0 0.0 0.00 0.00 0.00 77 1015.7
20260504045055 6 22 0.0 0.0 0.00 0.00 0.00 77 1015.7
20260504044555 6 22 0.0 1.6 0.00 0.00 0.00 77 1015.7
20260504044055 6 22 0.0 3.2 0.00 0.00 0.00 77 1015.8
20260504043555 6 22 1.6 0.0 0.00 0.00 0.00 77 1015.7
20260504043057 6 22 1.6 3.2 0.00 0.00 0.00 78 1015.7
20260504042555 6 22 1.6 1.6 0.00 0.00 0.00 77 1015.7
20260504042055 6 22 1.6 3.2 0.00 0.00 0.00 76 1015.6
20260504041555 6 22 0.0 1.6 0.00 0.00 0.00 77 1015.8
20260504041055 6 22 1.6 3.2 0.00 0.00 0.00 78 1015.7
20260504040555 6 22 1.6 1.6 0.00 0.00 0.00 78 1015.7
20260504040055 6 22 0.0 1.6 0.00 0.00 0.00 78 1015.6
20260504035555 6 22 0.0 1.6 0.00 0.00 0.00 76 1015.6
20260504035057 5 22 1.6 1.6 0.00 0.00 0.00 76 1015.6
20260504034555 6 22 1.6 1.6 0.00 0.00 0.00 76 1015.7
20260504034055 5 22 1.6 1.6 0.00 0.00 0.00 75 1015.6
20260504033555 5 22 1.6 3.2 0.00 0.00 0.00 74 1015.6
20260504033057 5 22 1.6 3.2 0.00 0.00 0.00 73 1015.7
20260504032555 5 22 1.6 3.2 0.00 0.00 0.00 71 1015.8
20260504032055 5 22 1.6 1.6 0.00 0.00 0.00 70 1015.8
20260504031555 6 22 1.6 3.2 0.00 0.00 0.00 66 1015.8
20260504031055 6 22 1.6 3.2 0.00 0.00 0.00 65 1015.7
20260504030555 6 172 1.6 1.6 0.00 0.00 0.00 65 1015.7
20260504030055 6 172 0.0 3.2 0.00 0.00 0.00 67 1015.8
20260504025555 6 172 0.0 3.2 0.00 0.00 0.00 68 1015.7
20260504025057 6 172 0.0 0.0 0.00 0.00 0.00 68 1015.7
20260504024555 6 172 0.0 0.0 0.00 0.00 0.00 68 1015.7
20260504024055 6 172 0.0 0.0 0.00 0.00 0.00 68 1015.6
20260504023555 6 172 0.0 0.0 0.00 0.00 0.00 69 1015.7
20260504023055 6 172 0.0 0.0 0.00 0.00 0.00 70 1015.7
20260504022555 6 172 0.0 0.0 0.00 0.00 0.00 69 1015.6
20260504022055 6 172 0.0 0.0 0.00 0.00 0.00 69 1015.5
20260504021555 6 172 0.0 0.0 0.00 0.00 0.00 68 1015.6
20260504021057 6 172 0.0 0.0 0.00 0.00 0.00 67 1015.6
20260504020555 6 172 0.0 0.0 0.00 0.00 0.00 68 1015.6
20260504020055 6 172 0.0 0.0 0.00 0.00 0.00 67 1015.5
20260504015555 6 172 0.0 0.0 0.00 0.00 0.00 69 1015.4
20260504015055 6 172 0.0 0.0 0.00 0.00 0.00 68 1015.4
20260504014555 6 172 0.0 0.0 0.00 0.00 0.00 69 1015.4
20260504014055 6 172 0.0 3.2 0.00 0.00 0.00 67 1015.3
20260504013555 6 172 1.6 0.0 0.00 0.00 0.00 65 1015.4
20260504013057 6 172 1.6 8.0 0.00 0.00 0.00 66 1015.3
20260504012555 6 173 0.0 8.0 0.00 0.00 0.00 65 1015.2
20260504012055 7 5 0.0 0.0 0.00 0.00 0.00 62 1015.2